Preview of NWS' New Version of Forecast
This preview is not operational and should not be used for support decisions.

Regional Weather Roundup (RWR)

Issued by National Weather Service (NWS)

                            
000
ASUS43 KDTX 200901
RWRMI 
MICHIGAN HOURLY REGIONAL WEATHER ROUNDUP
NATIONAL WEATHER SERVICE DETROIT/PONTIAC MI
500 AM EDT WED MAR 20 2019

NOTE: "FAIR" INDICATES FEW OR NO CLOUDS BELOW 12,000 FEET WITH NO
SIGNIFICANT WEATHER AND/OR OBSTRUCTION TO VISIBILITY.

MIZ047>049-052>055-059>063-066>070-074>076-081>083-201000-
SOUTHEAST LOWER MICHIGAN
  
CITY           SKY/WX    TMP DP  RH WIND       PRES   REMARKS
ADRIAN         FAIR      31  24  75 CALM      30.23F                  
ALMA           FAIR      32  22  67 S7        30.16F WCI  26          
ANN ARBOR      FAIR      25  24  96 CALM      30.22F FOG              
BAD AXE        FAIR      32  23  68 S9        30.16F WCI  25          
CARO           FAIR      30  23  74 S3        30.17F                  
DETROIT CITY   FAIR      32  23  69 S5        30.24F WCI  27          
DETROIT        CLOUDY    32  22  66 S5        30.24F WCI  27          
FLINT          FAIR      33  24  69 S8        30.20F WCI  26          
GROSSE ILE     FAIR      33  28  82 CALM      30.23F                  
HILLSDALE      FAIR      34  24  66 S6        30.20F WCI  28          
HOWELL         FAIR      32  24  71 SW5       30.20S WCI  27          

CITY           SKY/WX    TMP DP  RH WIND       PRES   REMARKS
JACKSON        FAIR      33  25  72 S6        30.20F WCI  28          
LAMBERTVILLE   FAIR      33  26  76 S3        30.24F                  
LANSING        FAIR      32  24  72 S8        30.19F WCI  25          
LAPEER         FAIR      32  25  76 S6        30.20F WCI  26          
MASON          FAIR      33  27  78 S3        30.20F                  
MONROE         FAIR      32  27  82 S5        30.23F WCI  28          
PONTIAC        FAIR      33  23  66 SW6       30.20F WCI  28          
PORT HOPE        N/A     35  20  54 VRB6      30.15F WCI  30          
PORT HURON     FAIR      28  25  86 S3        30.23S                  
TRI CITIES     FAIR      34  23  64 S10       30.16F WCI  26          
MIDLAND        FAIR      32  22  65 S6        30.15F WCI  27          
TROY           FAIR      32  22  68 SW3       30.24F                  
SAGINAW HB     FAIR      36  28  75 S10       30.17S WCI  28          
$$
MIZ043>046-050>051-056>058-064>065-071>073-077>080-201000-
SOUTHWEST LOWER MICHIGAN
  
CITY           SKY/WX    TMP DP  RH WIND       PRES   REMARKS
BATTLE CREEK   FAIR      33  24  69 S8        30.18F WCI  26          
BENTON HARBOR  CLOUDY    39  26  59 S8        30.18F WCI  33          
BIG RAPIDS     FAIR      32  23  69 S3        30.11F                  
COLDWATER      FAIR      37  26  65 S5        30.20F WCI  33          
FREMONT        FAIR      33  23  67 S5        30.13F WCI  28          
HOLLAND        FAIR      35  26  69 S10       30.15F WCI  27          
GRAND RAPIDS   FAIR      33  23  66 S9        30.15F WCI  25          
IONIA          FAIR      34  24  65 S12       30.15F WCI  25          
KALAMAZOO      FAIR      35  25  66 S6        30.18F WCI  30          
LUDINGTON      CLOUDY    40  29  66 SW16      30.09F WCI  31          
MARSHALL       FAIR      33  26  75 S3        30.19F                  
MOUNT PLEASANT FAIR      34  19  54 SW7       30.14F WCI  27          
MUSKEGON       FAIR      39  26  59 S12       30.13F WCI  32          
SOUTH HAVEN    FAIR      37  26  64 S5        30.17F WCI  33          
$$
MIZ016>042-201000-
NORTHERN LOWER MICHIGAN
  
CITY           SKY/WX    TMP DP  RH WIND       PRES   REMARKS
ALPENA         CLOUDY    33  20  58 S7        30.08F WCI  27          
BEAVER ISLAND  CLOUDY    37  29  73 SW13G18   30.00F WCI  29          
BELLAIRE       CLOUDY    37  23  59 CALM      30.06F                  
CADILLAC       FAIR      32  22  66 S8        30.07F WCI  25          
CHARLEVOIX     CLOUDY    37  25  60 S12G17    30.05F WCI  30          
FRANKFORT      CLOUDY    42  28  57 S12G22    30.06F                  
GAYLORD        CLOUDY    31  20  63 SW8       30.04F WCI  23          
HARBOR SPRINGS CLOUDY    37  24  59 SW12G18   30.02F WCI  30          
HOUGHTON LAKE  FAIR      31  19  61 S8        30.09F WCI  23          
MANISTEE       CLOUDY    32  26  78 CALM      30.08F                  
OSCODA         FAIR      28  22  77 SW9       30.13S WCI  20          
PELLSTON       CLOUDY    38  24  57 SW12G22   30.02F WCI  30          
ROGERS CITY    CLOUDY    34  22  60 S10       30.06F WCI  26          
TRAVERSE CITY  MOCLDY    38  24  57 SW10      30.05F WCI  31          
$$
MIZ007>008-015-201000-
EASTERN UPPER MICHIGAN
  
CITY           SKY/WX    TMP DP  RH WIND       PRES   REMARKS
KINROSS        CLOUDY    35  26  69 VRB7      29.98F WCI  29          
MACKINAC ISLAN CLOUDY    38  26  61 SW8       30.00F WCI  32          
NEWBERRY       CLOUDY    35  30  84 S10       29.95F WCI  27          
S. S. MARIE    CLOUDY    32  25  75 E3        29.98F                  
MUNISING         N/A     37  25  61 S9        29.91F WCI  30          
$$
MIZ004>006-011>014-085-201000-
CENTRAL UPPER MICHIGAN
  
CITY           SKY/WX    TMP DP  RH WIND       PRES   REMARKS
MANISTIQUE     CLOUDY    34  29  82 S9        29.95F WCI  27          
ESCANABA       CLOUDY    35  28  75 S6        29.95F WCI  30          
MENOMINEE      CLOUDY    38  27  64 SW9       29.99F WCI  31          
SAWYER-GWINN   CLOUDY    37  28  70 SW8       29.88F WCI  31          
$$
MIZ001>003-009>011-084-201000-
WESTERN UPPER MICHIGAN
  
CITY           SKY/WX    TMP DP  RH WIND       PRES   REMARKS
IRON MOUNTAIN  CLOUDY    37  29  72 S6        29.90F WCI  32          
HOUGHTON       FAIR      39  27  62 SW9       29.82F WCI  33          
COPPER HARBOR    N/A     39  33  79 VRB3      29.83F                  
IRONWOOD       MOCLDY    37  30  75 SW13G21   29.84F WCI  29          
$$

ABBREVIATIONS USED IN REMARKS
   TC - TEMPERATURE IN CELSIUS
  WCI - WIND CHILL INDEX
   HX - HEAT INDEX
  VSB - VISIBILITY